FW0784 Weather Reports


time (UTC)temp
F
wind
direction
speed
knots
gust
knots
rain 1hr
in
rain 24hr
in
rain mn
in
humidity
%
barometer
mb
20260505070038 56 35 13.0 21.7 0.00 0.01 0.00 48 1006.5
20260505064530 57 35 12.2 23.5 0.00 0.01 0.00 47 1006.2
20260505063027 58 35 15.6 22.6 0.00 0.01 0.00 46 1006.0
20260505061530 58 39 17.4 23.5 0.00 0.01 0.00 45 1005.5
20260505060023 58 35 16.5 23.5 0.00 0.01 0.00 44 1005.4
20260505054517 59 51 17.4 24.3 0.00 0.01 0.00 43 1005.0
20260505053012 61 53 15.6 22.6 0.00 0.01 0.00 41 1004.7
20260505051527 62 30 13.9 23.5 0.00 0.01 0.00 40 1004.7
20260505041501 67 36 9.6 15.6 0.00 0.01 0.01 37 1004.5
20260505040001 67 37 11.3 19.1 0.01 0.01 0.01 36 1004.3
20260505034600 67 29 10.4 17.4 0.01 0.01 0.01 38 1003.9
20260505033100 68 33 7.8 19.1 0.01 0.01 0.01 39 1003.8
20260505031604 68 359 11.3 17.4 0.01 0.01 0.01 40 1003.4
20260505024558 72 21 13.0 20.0 0.00 0.00 0.00 39 1002.0
20260505023058 73 35 13.0 19.1 0.00 0.00 0.00 43 1000.6
20260505021557 75 100 1.7 6.1 0.00 0.00 0.00 45 1000.4
20260505020103 75 104 2.6 6.1 0.00 0.00 0.00 46 1000.3
20260505014556 74 114 0.9 2.6 0.00 0.00 0.00 47 1000.2
20260505013102 74 42 3.5 7.0 0.00 0.00 0.00 47 999.7
20260505011553 77 33 1.7 3.5 0.00 0.00 0.00 41 999.7
20260505010107 79 113 0.9 2.6 0.00 0.00 0.00 38 1000.0
20260505004548 80 81 0.9 2.6 0.00 0.00 0.00 36 999.9
20260505003054 82 70 0.9 1.7 0.00 0.00 0.00 33 999.6
20260505001548 83 91 0.9 4.3 0.00 0.00 0.00 31 999.6
20260505000048 84 85 0.9 2.6 0.00 0.00 0.00 28 999.7
20260504234546 84 120 0.0 2.6 0.00 0.00 0.00 27 999.8
20260504233100 84 107 0.9 3.5 0.00 0.00 0.00 27 999.9
20260504231546 84 285 0.9 2.6 0.00 0.00 0.00 29 1000.0
20260504230051 83 91 0.0 2.6 0.00 0.00 0.00 31 999.9
20260504224541 84 149 1.7 3.5 0.00 0.00 0.00 29 999.9
20260504223038 83 154 0.9 5.2 0.00 0.00 0.00 31 1000.1
20260504221538 83 135 1.7 4.3 0.00 0.00 0.00 32 999.9
20260504220036 83 87 2.6 6.1 0.00 0.00 0.00 30 999.9
20260504214534 83 80 1.7 6.1 0.00 0.00 0.00 32 1000.1
20260504213034 84 145 0.9 5.2 0.00 0.00 0.00 31 1000.1
20260504211536 83 172 2.6 7.0 0.00 0.00 0.00 31 1000.2
20260504210034 83 55 3.5 7.0 0.00 0.00 0.00 31 1000.4
20260504204532 83 159 2.6 7.0 0.00 0.00 0.00 31 1000.6
20260504203038 83 159 2.6 7.8 0.00 0.00 0.00 31 1000.8
20260504201525 84 125 3.5 7.0 0.00 0.00 0.00 30 1001.1
20260504200024 84 160 2.6 7.0 0.00 0.00 0.00 32 1001.2
20260504194523 84 189 3.5 7.8 0.00 0.00 0.00 30 1001.2
20260504193021 84 212 4.3 8.7 0.00 0.00 0.00 31 1001.4
20260504191524 86 359 1.7 8.7 0.00 0.00 0.00 24 1001.4
20260504190019 87 79 2.6 13.9 0.00 0.00 0.00 28 1001.6
20260504184518 87 260 0.9 4.3 0.00 0.00 0.00 23 1001.7
20260504183016 86 62 0.9 6.1 0.00 0.00 0.00 25 1001.7
20260504181514 86 55 1.7 5.2 0.00 0.00 0.00 29 1001.6
20260504180011 86 58 1.7 8.7 0.00 0.00 0.00 30 1001.7
20260504174507 84 137 0.9 6.1 0.00 0.00 0.00 30 1001.9
20260504173005 83 28 0.9 4.3 0.00 0.00 0.00 33 1002.1
20260504171502 82 244 0.9 7.0 0.00 0.00 0.00 34 1002.0
20260504081550 61 187 0.9 2.6 0.00 0.00 0.00 53 1003.0